Zurück zum Katalog

COSMOS 249 DEB

AktivLEO
NORAD 20011·DEBRIS·🇷🇺 Russia

Gestartet Oct 20, 1968 von Baikonur Cosmodrome

Loading…

Nächste Überflüge (nächste 24 Stunden)

TLE

AktuellSource: Space-Track

Epoche: Sep 14, 2026, 06:20 UTC

1 20011U 68091DN  26257.26427941  .00001376  00000-0  15257-2 0  9994
2 20011  62.2229 204.0759 0630276 327.9943  28.4181 13.11285888654584

Verfolge COSMOS 249 DEB in Echtzeit mit AllMySat

Download on the App Store